COSMOS 1275 DEB, 12706

Orbit data source: Space-Track

COSMOS 1275 DEB, 12706 is space debris in LEO originally from a launch on Thu, 04 Jun 1981 UTC launched from the Plesetsk Missile And Space Complex (PKMTR). Debris objects in space refer to the collection of defunct objects orbiting the Earth. Examples of debris include non-operational satellites, rocket bodies, and fragments generated from explosions, collisions, or faulty payload assembly.

Loading next visibility...
Identifier
12706, 1981-053BA
Orbit
LEO
Country
Flag of CISCIS
Related business
Manufacturer
Unknown
Mission
Spacecraft
Bus & Motor
Unknown
Mass
Unknown
Launch date (UTC)
1981-06-04 (45 years ago)
Launch vehicle
Unknown
Launch site
Plesetsk Missile And Space Complex (PKMTR)
Object type
Payload
Rocket body
Debris
Shape & HBR
Unknown shape, 0.1 m
Radar Cross Section
Small (<0.1 m²)

Expand to show TLE details & history
Last TLE update: 1 day ago

TLE from 1 day ago
0 COSMOS 1275 DEB
1 12706U 81053BA  26118.04414412  .00001267  00000-0  11326-2 0  9992
2 12706  82.8823 338.0024 0103354 176.6797 350.6464 13.81300431232164
Epoch: 2026-04-28T01:03Z
TLE epoch observation values (Epoch: 2026-04-28T01:03:34.051Z)
Latitude
12.73016°
Longitude
-75.52259°
Altitude
886.612 km
Speed
7.448 km/s
True Right ascension
10h 25m 34s
True Declination
12° 39' 28"
Sunlit
Object was in daylight at epoch
Visualization orbit readout
Latitude
Unknown
Longitude
Unknown
Altitude
Unknown
Speed
Unknown
Apparent Right ascension
Unknown
Apparent Declination
Unknown
Sunlit
N/A
Visualization observer readout
Local Sidereal Time
10:24:12
Azimuth
Unknown
Elevation
Unknown
Doppler factor
Unknown
Orbital elements
Apogee altitude
1,032.225 km
Perigee altitude
880.614 km
Semi-major axis
7,334.557 km
Eccentricity
0.01034
Inclination
82.8823°
RAAN
338.0024°
Arg. of periapsis
176.6797°
True anomaly
350.45143°
Mean anomaly
350.6464°
Eccentric anomaly
350.54916°
Mean motion
3.45527 °/min
Orbital period
104.19 mins
BSTAR
0.0011326
Loading maneuver chart data...
Computing Atmospheric mass density...
Loading historical data...
Loading historical data...
Loading historical data...
Loading historical data...
Loading historical data...
Loading historical data...
Loading historical data...

Documentation

Showing up to 5 results
|